Hourly Data Report for October 19, 2017

All times are specified in Local Standard Time (LST). Add 1 hour to adjust for Daylight Saving Time where and when it is observed.

POWELL RIVER
BRITISH COLUMBIA

49°50'04.400" N
124°29'48.500" W
125.00 m
1046392
71720
VOP

Download Data

Hourly Data (October 2017)
Hourly Data Report for October 19, 2017
Temp Definition
°C
Dew Point Temp Definition
°C
Rel Hum Definition
%
Wind Dir Definition
10's deg

Wind Spd Definition
km/h
Visibility Definition
km
Stn Press Definition
kPa
Hmdx Definition


Wind Chill Definition


Weather Definition


TIME
00:00 10.6 8.4 86 LegendMM LegendMM   98.25     LegendNANA
01:00 9.9 8.4 90 LegendMM LegendMM   98.24     LegendNANA
02:00 9.6 8.2 91 LegendMM LegendMM   98.23     LegendNANA
03:00 9.8 8.5 91 LegendMM LegendMM   98.20     LegendNANA
04:00 10.0 8.8 92 LegendMM LegendMM   98.17     LegendNANA
05:00 10.0 8.8 93 LegendMM LegendMM   98.13     LegendNANA
06:00 10.0 8.1 88 LegendMM LegendMM   98.17     LegendNANA
07:00 9.9 7.3 84 LegendMM LegendMM   98.17     LegendNANA
08:00 9.6 8.3 92 LegendMM LegendMM   98.09     LegendNANA
09:00 10.4 8.9 91 LegendMM LegendMM   98.12     LegendNANA
10:00 10.7 8.8 88 LegendMM LegendMM   98.12     LegendNANA
11:00 10.7 7.7 82 LegendMM LegendMM   98.13     LegendNANA
12:00 10.1 7.8 85 LegendMM LegendMM   98.14     LegendNANA
13:00 10.1 8.6 91 LegendMM LegendMM   98.12     LegendNANA
14:00 10.4 9.0 91 LegendMM LegendMM   98.08     LegendNANA
15:00 10.3 9.1 92 LegendMM LegendMM   98.07     LegendNANA
16:00 10.3 8.7 90 LegendMM LegendMM   98.05     LegendNANA
17:00 9.8 8.4 91 LegendMM LegendMM   98.07     LegendNANA
18:00 9.3 8.2 93 LegendMM LegendMM   98.14     LegendNANA
19:00 9.1 7.9 93 LegendMM LegendMM   98.16     LegendNANA
20:00 8.9 7.7 93 LegendMM LegendMM   98.19     LegendNANA
21:00 8.6 7.5 93 LegendMM LegendMM   98.22     LegendNANA
22:00 8.3 7.3 93 LegendMM LegendMM   98.24     LegendNANA
23:00 7.7 6.7 93 LegendMM LegendMM   98.27     LegendNANA

Notes on Data Quality.

Legend

  • E = Estimated
  • M = Missing
  • NA = Not Available
  • ‡ = Partner data that is not subject to review by the National Climate Archives
Date modified: